Weather History for Salinas, CA

Change the Weather History Date:

Sunday, March 3, 2013

  Actual Average Record
Temperature  
Mean Temperature 56 °F 54 °F  
Max Temperature 62 °F 64 °F 80 °F (1931)
Min Temperature 49 °F 44 °F 27 °F (1946)
Degree Days  
Heating Degree Days 9 11  
Month to date heating degree days 14 33  
Since 1 July heating degree days 1769 1847  
Cooling Degree Days 0 0  
Month to date cooling degree days 0 0  
Year to date cooling degree days 0 0  
Growing Degree Days 4 (Base 50)    
Moisture  
Dew Point 47 °F    
Average Humidity 75    
Maximum Humidity 89    
Minimum Humidity 60    
Precipitation  
Precipitation T in 0.09 in 0.96 in (1991)
Month to date precipitation T 0.26  
Year to date precipitation 1.60 5.35  
Since 1 July precipitation 8.24 9.46  
Sea Level Pressure  
Sea Level Pressure 30.13 in    
Wind  
Wind Speed 7 mph (WNW)    
Max Wind Speed 16 mph    
Max Gust Speed 20 mph    
Visibility 8 miles    
Events Rain    
T = Trace of Precipitation, MM = Missing Value Source: NWS Daily Summary

Daily Weather History Graph

Daily Weather History Graph

Search for Another Location

Airport:

Trip Planner

Search our weather history database for the weather conditions in past years. The results will help you decide how hot, cold, wet, or windy it might be!

Date:

Astronomy

Mar. 03, 2013 Rise Set
Actual Time 6:33 AM PST 6:03 PM PST
Civil Twilight 6:08 AM PST 6:29 PM PST
Nautical Twilight 5:38 AM PST 6:59 PM PST
Astronomical Twilight 5:08 AM PST 7:29 PM PST
Moon No Moon Rise 10:04 AM PST (3/3)
Length of Visible Light 12h 21m
Length of Day
11h 29m
Waning Gibbous, 62% of the Moon is Illuminated
Mar 3
Waning Gibbous
Mar 4
Last Quarter
Mar 11
New
Mar 19
First Quarter
Mar 27
Full

Hourly Weather History & Observations

Time (PST) Temp. Dew Point Humidity Pressure Visibility Wind Dir Wind Speed Gust Speed Precip Events Conditions
12:19 AM 51.8 °F 48.2 °F 88% 30.11 in 7.0 mi NW 3.5 mph - N/A   Partly Cloudy
12:33 AM 51.8 °F 48.2 °F 88% 30.12 in 7.0 mi WNW 4.6 mph - N/A   Mostly Cloudy
12:44 AM 51.8 °F 48.2 °F 88% 30.12 in 8.0 mi West 3.5 mph - N/A   Mostly Cloudy
12:53 AM 51.1 °F 48.0 °F 89% 30.15 in 8.0 mi West 4.6 mph - N/A   Scattered Clouds
1:53 AM 51.1 °F 48.0 °F 89% 30.14 in 8.0 mi SSE 3.5 mph - N/A   Mostly Cloudy
2:53 AM 51.1 °F 48.0 °F 89% 30.14 in 5.0 mi NW 3.5 mph - N/A   Mostly Cloudy
4:09 AM 51.8 °F 48.2 °F 88% 30.11 in 5.0 mi NW 6.9 mph - N/A   Overcast
4:20 AM 51.8 °F 48.2 °F 88% 30.11 in 5.0 mi NNW 5.8 mph - 0.00 in Rain Light Rain
4:53 AM 51.1 °F 48.9 °F 92% 30.14 in 5.0 mi NW 5.8 mph - 0.00 in   Overcast
5:23 AM 51.8 °F 48.2 °F 88% 30.11 in 6.0 mi WNW 5.8 mph - N/A   Overcast
5:53 AM 50.0 °F 48.9 °F 96% 30.14 in 5.0 mi WNW 6.9 mph - 0.00 in Rain Light Rain
6:53 AM 50.0 °F 48.9 °F 96% 30.14 in 6.0 mi West 3.5 mph - 0.00 in   Overcast
7:53 AM 51.1 °F 48.9 °F 92% 30.15 in 6.0 mi WNW 5.8 mph - 0.00 in   Overcast
8:49 AM 51.8 °F 48.2 °F 88% 30.12 in 7.0 mi WNW 5.8 mph - N/A   Overcast
8:53 AM 51.1 °F 48.9 °F 92% 30.15 in 7.0 mi WNW 5.8 mph - N/A   Overcast
9:53 AM 53.1 °F 48.9 °F 86% 30.16 in 9.0 mi WNW 4.6 mph - N/A   Overcast
10:41 AM 53.6 °F 48.2 °F 82% 30.13 in 9.0 mi WNW 6.9 mph - N/A   Overcast
10:53 AM 55.0 °F 48.9 °F 80% 30.15 in 10.0 mi WNW 5.8 mph - N/A   Overcast
11:36 AM 55.4 °F 48.2 °F 77% 30.12 in 9.0 mi NW 6.9 mph - N/A   Overcast
11:53 AM 55.9 °F 48.0 °F 75% 30.14 in 10.0 mi WNW 6.9 mph - N/A   Overcast
12:53 PM 59.0 °F 46.9 °F 64% 30.12 in 10.0 mi WNW 6.9 mph - N/A   Mostly Cloudy
1:53 PM 61.0 °F 46.9 °F 60% 30.10 in 10.0 mi WNW 10.4 mph - N/A   Overcast
2:53 PM 59.0 °F 48.0 °F 67% 30.11 in 10.0 mi WNW 10.4 mph - N/A   Clear
3:53 PM 57.0 °F 48.0 °F 72% 30.11 in 10.0 mi WNW 11.5 mph - N/A   Partly Cloudy
4:53 PM 54.0 °F 46.9 °F 77% 30.11 in 10.0 mi West 13.8 mph - N/A   Scattered Clouds
5:07 PM 53.6 °F 46.4 °F 77% 30.09 in 10.0 mi West 8.1 mph - N/A   Mostly Cloudy
5:34 PM 51.8 °F 46.4 °F 82% 30.10 in 9.0 mi West 11.5 mph - N/A   Overcast
5:53 PM 51.1 °F 46.9 °F 86% 30.12 in 7.0 mi WSW 9.2 mph - N/A   Overcast
6:53 PM 50.0 °F 46.0 °F 86% 30.13 in 8.0 mi WNW 8.1 mph - N/A   Overcast
7:53 PM 50.0 °F 46.0 °F 86% 30.14 in 8.0 mi West 11.5 mph - N/A   Overcast
8:20 PM 50.0 °F 44.6 °F 82% 30.12 in 9.0 mi West 9.2 mph - N/A   Overcast
8:53 PM 50.0 °F 45.0 °F 83% 30.16 in 9.0 mi WSW 9.2 mph - N/A   Overcast
9:53 PM 50.0 °F 45.0 °F 83% 30.15 in 9.0 mi WSW 9.2 mph - N/A   Overcast
10:53 PM 48.9 °F 45.0 °F 86% 30.15 in 9.0 mi WSW 9.2 mph - N/A   Overcast
11:53 PM 48.9 °F 46.0 °F 90% 30.14 in 6.0 mi SW 5.8 mph - N/A   Overcast